Lid_Strength_Index
-0 2 3 6 10 12 15 14 11 11 10 8 7 8 9 8 10 12 3 1 0 0 -0 -0 -1 -2 -2 -2 -2 -2 -2 -2 -2 -2 -2 -2 -2 -2 -2 -2 -2 -2 -2 -2 -2 -2 -2 -2 -2
1 3 5 8 12 15 15 13 12 10 8 6 7 8 8 11 6 4 3 0 -0 -0 -0 -0 -1 -1 -1 -1 -1 -2 -2 -2 -2 -2 -2 -2 -2 -2 -2 -2 -2 -2 -2 -2 -2 -2 -2 -2 -2
4 4 7 10 14 15 15 13 11 9 7 10 8 6 8 8 6 4 2 0 -0 -0 -0 -0 -1 -2 -1 -1 -1 -1 -2 -2 -2 -2 -2 -2 -2 -2 -2 -2 -2 -2 -2 -2 -2 -2 -2 -2 -2
5 6 8 12 14 12 13 11 8 9 9 8 7 9 7 4 4 2 0 0 0 -0 0 -0 -1 -2 -2 -2 -1 -1 -1 -2 -2 -2 -2 -2 -2 -3 -2 -2 -2 -2 -2 -2 -2 -2 -2 -2 -2
5 8 11 13 13 12 12 9 8 9 9 8 8 10 10 4 2 1 1 0 1 0 0 -0 -1 -1 -1 -2 -2 -2 -2 -2 -2 -2 -2 -2 -2 -2 -2 -3 -2 -2 -2 -2 -1 -1 -1 -1 -2
8 9 13 14 13 11 9 8 8 9 9 8 8 9 9 3 2 2 0 1 -0 0 -0 -0 1 -0 -1 -1 -2 -2 -2 -2 -2 -2 -2 -2 -2 -2 -2 -2 -2 -2 -2 -1 -1 -1 -1 -1 -1
9 10 13 13 13 12 9 8 9 9 9 8 6 10 9 6 2 1 1 1 1 0 0 0 0 0 1 -0 -0 -1 -2 -2 -2 -2 -2 -2 -2 -2 -2 -2 -3 -2 -1 -1 -1 -1 -1 -1 -1
8 10 13 14 12 12 9 8 8 8 8 6 5 9 10 5 2 2 1 1 1 0 0 0 1 0 0 1 1 0 -1 -1 -1 -2 -1 -1 -1 -2 -1 -1 -2 -2 -2 -2 -2 -1 -1 -1 -1
8 11 14 13 12 11 10 9 9 7 7 6 6 6 5 3 2 2 2 2 1 1 1 1 0 0 1 1 1 1 0 0 -0 0 0 0 0 0 0 0 -1 -2 -2 -2 -3 -2 -2 -2 -1
12 12 12 10 10 10 9 9 9 8 8 8 8 5 3 3 3 3 3 3 2 2 1 1 1 1 0 -0 0 1 0 1 1 1 1 1 1 1 0 1 0 -1 -1 -2 -2 -2 -2 -1 1
12 14 11 10 8 8 9 9 8 8 10 7 7 6 4 4 4 4 3 3 3 2 1 1 1 1 1 0 0 1 1 2 2 2 1 1 1 2 2 2 1 1 2 1 1 1 1 2 2
13 10 11 10 8 8 10 8 9 8 8 7 5 4 4 5 4 4 4 3 3 2 2 1 1 2 2 1 1 1 1 1 2 2 1 1 2 2 3 2 2 2 2 2 2 2 2 2 2
12 11 10 10 10 9 8 9 10 9 8 6 4 4 5 5 4 3 3 3 3 3 2 2 1 2 1 2 2 2 2 1 1 1 2 1 2 2 3 2 3 3 3 3 3 3 3 3 4
13 11 11 11 11 10 10 10 9 8 7 6 5 6 5 5 4 4 4 3 3 2 2 2 2 1 1 2 2 2 2 2 2 2 2 2 2 3 3 3 4 4 4 4 4 4 5 5 5
12 13 13 13 11 11 9 12 11 9 7 7 6 6 5 4 4 4 3 3 3 2 2 2 2 1 2 1 1 1 1 2 2 2 2 2 2 3 3 3 4 4 4 4 4 4 4 5 4
13 14 16 14 11 10 10 16 12 10 8 7 7 6 6 5 4 3 3 3 3 3 2 2 1 1 1 1 1 1 1 1 2 2 2 2 2 2 3 3 3 3 3 4 4 4 4 4 4
16 20 17 15 12 11 11 13 11 11 10 9 8 7 6 5 5 4 3 3 3 3 2 3 2 2 2 1 1 1 2 2 2 2 1 1 2 2 2 2 2 3 3 3 4 4 5 5 5
18 19 17 17 14 12 12 12 11 12 12 10 11 10 9 7 5 5 5 3 3 3 3 2 2 2 2 1 2 3 3 3 2 2 2 2 1 1 1 1 2 2 2 2 3 3 4 4 5
16 18 18 16 14 15 14 13 11 10 12 13 13 12 12 11 9 9 7 5 4 4 4 3 3 2 2 3 3 3 3 2 2 2 2 2 2 2 1 1 2 1 2 2 2 3 4 4 4
15 16 18 17 15 15 16 16 13 12 11 10 11 12 11 10 11 10 10 10 7 5 4 3 3 2 2 2 2 3 3 3 2 2 2 2 1 2 1 1 2 1 1 2 2 2 3 3 4
15 17 17 17 15 16 17 18 16 14 12 11 10 9 10 10 9 9 10 10 11 9 5 3 2 2 2 2 3 4 3 4 2 2 2 2 1 1 1 1 1 1 1 2 2 2 2 2 3
16 14 14 15 16 20 17 22 19 16 15 14 12 11 10 11 10 9 10 10 10 9 8 4 2 2 1 2 2 3 2 3 3 3 2 2 2 1 2 1 2 2 2 2 1 1 1 2 3
15 11 12 14 16 17 19 21 21 19 18 17 15 13 12 10 9 10 10 10 10 10 9 7 5 4 3 2 2 3 3 3 4 4 3 3 3 2 2 2 3 1 2 2 2 2 2 2 2
11 13 13 14 16 21 20 20 22 19 18 17 16 15 13 12 13 13 13 12 11 10 9 8 7 6 6 5 4 4 4 4 5 5 5 4 3 3 2 2 2 2 2 2 2 2 2 2 1
11 15 19 20 22 24 21 20 20 18 17 16 15 15 15 15 15 15 14 13 11 9 8 7 7 7 6 6 6 6 6 7 7 6 4 4 6 6 5 5 5 6 6 5 5 5 5 4 5
12 13 18 22 22 22 18 22 21 17 15 14 14 14 14 14 14 14 14 12 9 7 7 7 7 8 7 7 8 8 7 6 6 5 5 5 7 7 7 8 8 8 7 8 7 7 7 7 7
14 15 13 16 19 20 20 20 17 16 15 14 14 13 12 12 13 11 10 9 8 8 8 8 8 9 9 9 9 10 10 9 9 9 9 9 9 9 9 9 10 9 9 10 10 9 9 8 9
12 12 16 16 25 25 20 21 21 18 16 15 14 13 12 12 11 10 9 9 9 10 10 9 9 10 11 11 11 11 11 11 11 11 11 11 10 9 10 10 10 11 11 11 11 11 11 11 11
12 14 14 15 18 22 24 21 17 16 15 15 14 13 12 11 10 9 9 10 10 11 11 11 12 12 12 12 12 12 13 12 12 12 12 12 11 11 11 11 12 12 12 12 12 12 12 13 13
10 12 12 16 18 18 18 20 15 15 15 14 13 12 12 12 10 10 10 11 11 12 12 12 13 13 13 14 14 14 14 14 14 14 14 13 13 12 13 12 13 13 13 13 13 13 14 14 15